Location: Guferjoch
(46.7462°N, 8.4506°E)
Time: 13:15:51
(UTC+00:00)

Iridium 4 Rocket - Pass Details

Date: 14 July 2020
Orbit: 583 x 906 km, 86.9° (Epoch: 07 August)

Event Time Altitude Azimuth Distance (km) Brightness Sun altitude
Exits shadow 00:24:12 41° 193° (SSW) 1,220 4.0 -20.6°
Maximum altitude 00:26:15 79° 273° (W) 860 3.6 -20.5°
Drops below altitude 10° 00:31:37 10° 0° (N) 2,365 7.1 -20.3°
Sets 00:33:53 0° 2° (N) 3,249 8.2 -20.2°
